Location: Newark
(53.7833°N, 9.4833°E)
Time: 22:35:43
(UTC+00:00)

Envisat - Pass Details

Date: 16 December 2019
Orbit: 764 x 766 km, 98.1° (Epoch: 18 January)

Event Time Altitude Azimuth Distance (km) Brightness Sun altitude
Rises 05:53:48 0° 18° (NNE) 3,247 6.2 -13.5°
Reaches altitude 10° 05:56:12 10° 23° (NNE) 2,316 5.5 -13.2°
Maximum altitude 06:01:09 49° 99° (E) 981 4.0 -12.5°
Drops below altitude 10° 06:06:04 10° 174° (S) 2,298 5.9 -11.8°
Sets 06:08:26 0° 180° (S) 3,220 6.6 -11.5°
